Regional Weather Roundup
Issued by NWS

Home | Current Version | Previous Version | Text Only | Print | Product List | Glossary On
Versions: 1 2 3 4 5 6 7 8 9 10 11 12 13 14 15 16 17 18 19 20 21 22 23 24 25 26 27 28 29 30 31 32 33 34 35 36 37 38 39 40 41 42 43 44 45 46 47 48 49 50
000
ASUS43 KLSX 250710
RWRMO

WEATHER SUMMARY FOR MISSOURI
NATIONAL WEATHER SERVICE SPRINGFIELD MO
200 AM CDT TUE JUL 25 2017

NOTE: "FAIR" INDICATES FEW OR NO CLOUDS BELOW 12,000 FEET WITH NO
       SIGNIFICANT WEATHER AND/OR OBSTRUCTIONS TO VISIBILITY.
       CURRENT SKY AND/OR WEATHER CONDITIONS ARE NOT AVAILABLE FOR
       CHILLICOTHE AND FARMINGTON.

MOZ001>031-035>038-043-044-053-054-250800-
...NORTHERN AND WESTERN MISSOURI...

CITY           SKY/WX    TMP DP  RH WIND       PRES   REMARKS
KANSAS CTY INT FAIR      74  67  78 SE9       30.05R
KANSAS C DTWN  FAIR      76  68  76 E6        30.04R
LEE`S SUMMIT   FAIR      73  68  84 SE7       30.06S
ST JOSEPH      FAIR      73  68  84 SE8       30.04S
CHILLICOTHE      N/A     72  66  81 SE5       30.08S
KIRKSVILLE     FAIR      67  65  93 E5        30.10S

$$
MOZ066>068-077>081-088>096-101>105-250800-
...SOUTHWEST MISSOURI...

CITY           SKY/WX    TMP DP  RH WIND       PRES   REMARKS
SPRINGFIELD    FAIR      76  70  82 CALM      30.05S
JOPLIN         FAIR      77  74  90 CALM      30.04S
BRANSON          N/A     77  68  73 CALM      30.05S

$$
MOZ032>034-039>042-045>050-055>058-069>072-250800-
...CENTRAL MISSOURI...

CITY           SKY/WX    TMP DP  RH WIND       PRES   REMARKS
COLUMBIA       FAIR      70  67  90 E7        30.07R
JEFFERSON CITY FAIR      73  68  84 E3        30.05R
ROLLA          FAIR      73  66  78 E8        30.05S
SEDALIA        FAIR      70  69  97 SE3       30.07S
WHITEMAN AFB   CLEAR     69  69 100 SE3       30.04F
WARRENSBURG    FAIR      68  64  88 E3        30.05S
OSAGE BEACH    FAIR      71  66  84 NE3       30.06R

$$
MOZ051-052-059>065-250800-
...EAST CENTRAL MISSOURI...

CITY           SKY/WX    TMP DP  RH WIND       PRES   REMARKS
ST LOUIS INTL  FAIR      76  67  73 E9        30.06S
SPIRIT OF STL  FAIR      74  69  85 E3        30.04S
ST CHARLES     FAIR      72  69  90 NE7       30.06R

$$
MOZ072>076-082>087-097>100-106>115-250800-
...SOUTH CENTRAL AND SOUTHEAST MISSOURI...

CITY           SKY/WX    TMP DP  RH WIND       PRES   REMARKS
CAPE GIRARDEAU MOCLDY    75  72  90 CALM      30.01S
FARMINGTON     FAIR      74  69  85 NE5       30.05S
POPLAR BLUFF   CLOUDY    80  78  94 NE3       30.00R
WEST PLAINS    FAIR      73  72  96 N6        30.05S

$$




USA.gov is the U.S. government's official web portal to all federal, state and local government web resources and services.